User: anonymous   Login
Location: Caltech
(34.1382°N, 118.1253°W)
Time: 09:43:59
(UTC-07:00)
Language:

Iridium 49 - Orbit

View from above orbital plane
View from above orbital plane
View from above satellite
View from above satellite

Ground track
Ground track

The orbit data is extracted from the following two-line orbital elements,

1 25108U 97082E   14298.10070978  .00000395  00000-0  13394-3 0  9662
2 25108 086.3927 299.2443 0002154 105.5094 319.8543 14.34220356881901
Epoch (UTC): 25 October 2014 02:25:01
Eccentricity: 0.0002154
inclination: 86.3927°
perigee height: 776 km
apogee height: 779 km
right ascension of ascending node: 299.2443°
argument of perigee: 105.5094°
revolutions per day: 14.34220356
mean anomaly at epoch: 319.8543°
orbit number at epoch: 88190

The dashed part of the orbit path shows where the satellite is in the earth's shadow,  

DLR